Location: Newark
(44.4156°N, 12.1972°E)
Time: 15:40:42
(UTC+00:00)

STARLINK-1116 - Pass Details

Date: 28 January 2020
Orbit: 348 x 351 km, 53.0° (Epoch: 28 February)

Event Time Altitude Azimuth Distance (km) Brightness Sun altitude
Rises 17:12:33 0° 306° (NW) 2,179 7.3 -10.6°
Reaches altitude 10° 17:14:52 10° 323° (NW) 1,332 5.9 -11.0°
Maximum altitude 17:17:15 21° 16° (NNE) 856 4.3 -11.4°
Enters shadow 17:18:20 18° 48° (NE) 972 4.4 -11.6°
